Weather in Yazyavan

Uzbekistan     40°39′08″N   71°44′42″E
temp.,
°C
wind,
m/s
gust,
m/s
humid.,
%
clouds,
%
prec.,
mm/h
press.,
hPa
HPBL,
m
18 may, tue
tue1823:00+23ne473463 0.0 1010125
02:00+20ne48340 0.0 1010146
05:00+19ne35325 0.0 101085
08:00+25ene45210 0.0 1011388
11:00+31ene33130 0.0 10091096
14:00+34e2290 0.0 10062806
17:00+34sse2294 0.0 10052927
20:00+27ne3525100 0.0 100676
19 may, wed
wed1923:00+24ne3430100 0.0 100670
02:00+22ne3531100 0.0 100598
05:00+20ene353193 0.0 100677
08:00+25ene3324100 0.0 1006354
11:00+29e222067 0.0 1005636
14:00+34ssw34115 0.0 10032815
17:00+35sw671185 0.0 10023880
20:00+26se332525 0.0 100442
20 may, thu
thu2023:00+24s122877 0.0 100544
02:00+21ne4638100 0.0 1006108
05:00+19ene35412 0.0 100886
08:00+25ne34295 0.0 1008385
11:00+32nne22194 0.0 10071304
14:00+35wsw35100 0.0 10053851
17:00+35wsw341025 0.0 10044277
20:00+25ne593041 0.0 1008272
21 may, fri
fri2123:00+22n34371 0.0 100981
02:00+20ene37402 0.0 1009139
05:00+19ne34445 0.0 101065
08:00+25ene34315 0.0 1011455
11:00+31nne112038 0.0 10101220
14:00+33w3414100 0.0 10073070
17:00+33nnw22135 0.0 10063625
20:00+26n472755 0.0 1008159
22 may, sat
sat2223:00+25nnw333297 0.0 100951
02:00+22ene3339100 0.0 100946
05:00+20ene333887 0.0 101048
08:00+26wnw032997 0.0 1010534
11:00+31ssw3322100 0.0 10091470
14:00+33wsw2217100 0.0 10063167
17:00+33sw4317100 0.0 10053236
20:00+29sw71121100 0.0 1007698